Weather Roundup
Issued by NWS

Home | Current Version | Previous Version | Text Only | Print | Product List | Glossary On
Versions: 1 2 3 4 5 6 7 8 9 10 11 12 13 14 15 16 17 18 19 20 21 22 23 24 25 26 27 28 29 30 31 32 33 34 35 36 37 38 39 40 41 42 43 44 45 46 47 48 49 50
365
NZUS93 KARX 201810
HRRWXR

CURRENT HOURLY OBSERVATIONS ACROSS
MUCH OF THE UPPER MISSISSIPPI VALLEY
NATIONAL WEATHER SERVICE LA CROSSE WI
100 PM CDT FRI APR 20 2018


...SOUTHEAST MINNESOTA...


CITY           SKY/WX    TMP DP  RH WIND       PRES   REMARKS
ROCHESTER      FAIR      44  30  57 SE5       30.49F
ROCHESTER/MAYO FAIR      47  21  36 SE3       30.49F
WINONA         FAIR      52  23  32 CALM      30.47F
AUSTIN         FAIR      39  23  52 SE5       30.49F
ALBERT LEA     FAIR      41  19  42 E5        30.48F
DODGE CENTER   FAIR      43  28  56 S6        30.49F
PRESTON        FAIR      43  24  47 S5        30.49F
OWATONNA       FAIR      45  27  49 S5        30.48F
FARIBAULT      FAIR      46  25  42 CALM      30.49F
$$

...ELSEWHERE IN MINNESOTA...


CITY           SKY/WX    TMP DP  RH WIND       PRES   REMARKS
MINNEAPOLIS    PTSUNNY   48  18  30 S3        30.49F
INTNL FALLS    FAIR      55  21  26 VRB3      30.40F
DULUTH         FAIR      53  22  29 W9        30.42F
RED WING       FAIR      52  16  24 S6        30.48F
REDWOOD FALLS  MOSUNNY   38  28  67 SE12      30.47F WCI  30
MANKATO        FAIR      42  26  53 SE7       30.50F
WORTHINGTON    CLOUDY    39  30  70 SE10      30.43F WCI  32
FAIRMONT       PTSUNNY   36  25  64 SE7       30.49S WCI  30
$$

...SOUTHWEST WISCONSIN...


CITY           SKY/WX    TMP DP  RH WIND       PRES   REMARKS
LA CROSSE      FAIR      52  24  33 S6        30.49F
PRAIRIE DU CHI FAIR      52  23  32 CALM      30.50F
BOSCOBEL       FAIR      55  26  32 VRB3      30.49F
LONE ROCK      FAIR      54  21  27 NE5       30.49F
PLATTEVILLE    FAIR      53  30  41 S6        30.49F
FORT MC COY    FAIR      52  18  26 CALM      30.49F
CAMP DOUGLAS   PTSUNNY   52  18  25 N3        30.48F
MAUSTON-NEW LI FAIR      51  18  27 CALM      30.47F
VIROQUA        FAIR      47  21  35 CALM      30.48F
WIS DELLS      FAIR      50  16  25 S3        30.48F
$$

...ELSEWHERE IN WISCONSIN...


CITY           SKY/WX    TMP DP  RH WIND       PRES   REMARKS
MILWAUKEE      PTSUNNY   50  26  39 SE9       30.51F
MADISON        PTSUNNY   53  16  23 CALM      30.49F
GREEN BAY      FAIR      45  27  49 S6        30.49F
EAU CLAIRE     FAIR      51  20  29 CALM      30.47F
BLACK RVR FLS  FAIR      53  17  24 CALM      30.47F
MEDFORD        FAIR      46  21  36 S7        30.47S
WAUSAU         FAIR      51  12  21 W7        30.45F
WIS RAPIDS     FAIR      55  16  21 CALM      30.49F
MARSHFIELD     FAIR      48  16  27 NW5       30.47S
RICE LAKE      FAIR      49  25  38 CALM      30.48F
$$

...NORTHEAST IOWA...


CITY           SKY/WX    TMP DP  RH WIND       PRES   REMARKS
WATERLOO       NOT AVBL
DUBUQUE        FAIR      52  28  39 CALM      30.49F
DECORAH        FAIR      45  23  42 CALM      30.49S
MASON CITY     CLOUDY    40  27  59 SE5       30.50S
CHARLES CITY   FAIR      46  28  49 S3        30.49F
OELWEIN        FAIR      50  30  46 NW6       30.48F
$$

...ELSEWHERE IN IOWA...


CITY           SKY/WX    TMP DP  RH WIND       PRES   REMARKS
DES MOINES     CLOUDY    56  29  35 S9        30.44F
IOWA CITY      FAIR      56  26  31 NW3       30.49F
FORT DODGE     MOSUNNY   54  34  46 SW6       30.45F
MARSHALLTOWN   CLOUDY    55  29  36 S7        30.45F
CEDAR RAPIDS   FAIR      56  26  31 E3        30.47F
$$

...NORTHERN ILLINOIS...


CITY           SKY/WX    TMP DP  RH WIND       PRES   REMARKS
CHICAGO-OHARE  PTSUNNY   58  15  18 E6        30.49F
CHICAGO-MIDWAY PTSUNNY   57  25  29 E9        30.50F
MOLINE         FAIR      58  19  22 S10       30.48F
ROCKFORD       FAIR      57  19  22 VRB3      30.50F
PEORIA         FAIR      59  22  24 MISG      30.49F
$$

NOTE: "FAIR" INDICATES FEW OR NO CLOUDS BELOW 12,000 FEET WITH NO
SIGNIFICANT WEATHER AND/OR OBSTRUCTIONS TO VISIBILITY. WIND
SPEEDS ARE IN MILES-PER-HOUR.




USA.gov is the U.S. government's official web portal to all federal, state and local government web resources and services.